Flag for Canada Weather past 2 weeks in St. John's, Newfoundland and Labrador, Canada

36 °F

Passing clouds.

Feels Like: 25 °F
Forecast: 32 / 37 °F
Wind: 18 mph from West

Location: St. John's

Current Time: Nov 24, 2015 at 10:50:38 PM

Latest Report: Nov 24, 2015 at 10:30 PM

Visibility: 15 mi

Pressure: 29.97 "Hg

Humidity: 87%

Dew point: 32 °F

Location of St. John'sLocation

Historic Weather in St. John's — Graph


St. John's temperature yesterday

Maximum temperature yesterday: 46 °F (at 11:30 AM)
Minimum temperature yesterday: 36 °F (at 4:30 AM)
Average temperature yesterday: 40 °F

Past Weeks' High & Low Weather Summary

High50 °F (Nov 24, 1:30 PM)100% (Nov 14, 8:30 AM)30.66 "Hg (Nov 14, 8:30 AM)
Low27 °F (Nov 11, 6:30 PM)60% (Nov 11, 10:30 AM)29.31 "Hg (Nov 15, 3:30 AM)
Average35 °F88%30.05 "Hg
* Reported Nov 9 9:30 PM — Nov 24 9:30 PM, St. John's, Weather by CustomWeather, © 2015

Note: Actual official high and low records may vary slightly from our data, if they occured in-between our weather recording intervals... More about our weather records


St. John's weather history for previous 24 hours

Time TempWeatherWind HumidityBarometerVisibility
9:30 PM
Tue, Nov 24
36 °FPartly cloudy.16 mph87%29.95 "Hg14 mi
8:30 PM37 °FPassing clouds.16 mph87%29.93 "Hg15 mi
7:30 PM39 °FOvercast.14 mph87%29.90 "Hg15 mi
6:30 PM39 °FOvercast.17 mph87%29.87 "Hg15 mi
5:30 PM41 °FMostly cloudy.15 mph87%29.84 "Hg15 mi
4:30 PM41 °FMostly cloudy.20 mph93%29.81 "Hg15 mi
3:30 PM43 °FMore clouds than sun.17 mph87%29.79 "Hg15 mi
3:23 PM43 °FMore clouds than sun.15 mph93%29.79 "Hg15 mi
2:30 PM46 °FLight rain. Low clouds.15 mph93%29.77 "Hg12 mi
1:30 PM50 °FLow clouds.10 mph94%29.75 "Hg8 mi
12:30 PM48 °FLow clouds.15 mph94%29.74 "Hg12 mi
11:30 AM48 °FDrizzle. Fog.22 mph94%29.77 "Hg4 mi
10:30 AM48 °FDrizzle. Fog.24 mph94%29.79 "Hg6 mi
9:30 AM48 °FLight rain. Fog.30 mph94%29.81 "Hg5 mi
8:30 AM46 °FFog.23 mph100%29.82 "Hg6 mi
7:30 AM45 °FDrizzle. Fog.26 mph100%29.83 "Hg1 mi
6:30 AM45 °FDrizzle. Fog.25 mph93%29.85 "Hg1 mi
5:30 AM43 °FDrizzle. Fog.26 mph100%29.88 "Hg1 mi
4:30 AM43 °FDrizzle. Fog.18 mph93%29.91 "Hg1 mi
3:30 AM41 °FDrizzle. Fog.28 mph100%29.93 "Hg1 mi
2:30 AM41 °FDrizzle. Fog.24 mph93%29.97 "Hg1 mi
1:30 AM41 °FDrizzle. Fog.24 mph93%29.99 "Hg1 mi
12:30 AM39 °FDrizzle. Fog.23 mph100%30.02 "Hg1 mi
11:30 PM
Mon, Nov 23
39 °FDrizzle. Fog.31 mph100%30.06 "Hg1 mi
10:30 PM39 °FDrizzle. Fog.29 mph93%30.08 "Hg4 mi
Weather by CustomWeather, © 2015

See weather overviewHow to use our weather pages